SCP
0 0 0 0 0 0 0 0 0 0 0 0 0 0 0 0 0 0 0 0 0 0 0 0 0 0 0 0 0 0 0 0 0 0 0 1 1 0
0 0 0 0 0 0 0 0 0 0 0 0 0 0 0 0 0 0 0 0 0 0 0 0 0 0 0 0 0 0 0 0 0 0 0 0 0 0
0 0 0 0 0 0 0 0 0 0 0 0 0 0 0 0 0 0 0 0 0 0 0 0 0 0 0 0 0 0 0 0 0 0 0 0 0 0
0 0 0 0 0 0 0 0 0 0 0 0 0 0 0 0 0 0 0 0 0 0 0 0 0 0 0 0 0 0 0 0 0 0 0 0 0 0
0 0 0 0 0 0 0 0 0 0 0 0 0 0 0 0 0 0 0 0 0 0 0 0 0 0 0 0 0 0 0 0 0 0 0 0 0 0
0 0 0 0 0 0 0 0 0 0 0 0 0 0 0 0 0 0 0 0 0 0 0 0 0 0 0 0 0 0 0 0 0 0 0 0 0 0
0 0 0 0 0 0 0 0 0 0 0 0 0 0 0 0 0 0 0 0 0 0 0 0 0 0 0 0 0 0 0 0 0 0 0 0 0 0
0 0 0 0 0 0 0 0 0 0 0 0 0 0 0 0 0 0 0 0 0 0 0 0 0 0 0 0 0 0 0 0 0 0 0 0 0 0
0 0 0 0 0 0 0 0 0 0 0 0 0 0 0 0 0 0 0 0 0 0 0 0 0 0 0 0 0 0 0 0 0 0 0 0 0 0
0 0 0 0 0 0 0 0 0 0 0 0 0 0 0 0 0 0 0 0 0 0 0 0 0 0 0 0 0 0 0 0 0 0 0 0 0 0
0 0 0 0 0 0 0 0 0 0 0 0 0 0 0 0 0 0 0 0 0 0 0 0 0 0 0 0 0 0 0 0 0 0 0 0 0 0
0 0 0 0 0 0 0 0 0 0 0 0 0 0 0 0 0 0 0 0 0 0 0 0 0 0 0 0 0 0 0 0 0 0 0 0 0 0
0 0 0 0 0 0 0 0 0 0 0 0 0 0 0 0 0 0 0 0 0 0 0 0 0 0 0 0 0 0 0 0 0 0 0 0 0 0
0 0 0 0 0 0 0 0 0 0 0 0 0 0 0 0 0 0 0 0 0 0 0 0 0 0 0 0 0 0 0 0 0 0 0 0 0 0
0 0 0 0 0 0 0 0 0 0 0 0 0 0 0 0 0 0 0 0 0 0 0 0 0 0 0 0 0 0 0 0 0 0 0 0 0 0
0 0 0 0 0 0 0 0 0 0 0 0 0 0 0 0 0 0 0 0 0 0 0 0 0 0 0 0 0 0 0 0 0 0 0 0 0 0
0 0 0 0 0 0 0 0 0 0 0 0 0 0 0 0 0 0 0 0 0 0 0 0 0 0 0 0 0 0 0 0 0 0 0 0 0 0
0 0 0 0 0 0 0 0 0 0 0 0 0 0 0 0 0 0 0 0 0 0 0 0 0 0 0 0 0 0 0 0 0 0 0 0 0 0
0 0 0 0 0 0 0 0 0 0 0 0 0 0 0 0 0 0 0 0 0 0 0 0 0 0 0 0 0 0 0 0 0 0 0 0 0 0
0 0 0 0 0 0 0 0 0 0 0 0 0 0 0 0 0 0 0 0 0 0 0 0 0 0 0 0 0 0 0 0 0 0 0 0 0 0
0 0 0 0 0 0 0 0 0 0 0 0 0 0 0 0 0 0 0 0 0 0 0 0 0 0 0 0 0 0 0 0 0 0 0 0 0 0
0 0 0 0 0 0 0 0 0 0 0 0 0 0 0 0 0 0 0 0 0 0 0 0 0 0 0 0 0 0 0 0 0 0 0 0 0 0
0 0 0 0 0 0 0 0 0 0 0 0 0 0 0 0 0 0 0 0 0 0 0 0 0 0 0 0 0 0 0 0 0 0 0 0 0 0
Wind_Speed
5 6 5 4 4 4 5 5 5 6 6 4 3 3 4 4 5 6 6 8 10 10 10 10 10 11 12 13 14 14 14 13 13 14 14 15 15 15
5 6 6 4 5 4 5 5 5 6 6 4 5 5 5 5 6 7 7 9 10 10 10 9 10 11 11 12 12 13 12 12 12 13 14 14 15 14
5 6 6 6 5 4 4 4 5 5 6 6 5 6 7 7 5 6 6 7 6 8 9 10 11 11 11 12 12 12 12 12 12 12 13 13 14 14
6 6 6 5 6 5 4 5 5 5 6 7 6 5 7 7 7 7 6 6 6 7 9 10 11 11 11 12 11 11 11 12 12 12 12 13 13 14
6 6 6 6 6 5 5 5 4 4 5 5 6 5 5 5 7 6 7 6 6 6 8 9 10 11 11 11 10 10 11 11 11 12 12 12 12 12
5 6 6 6 7 6 5 5 4 4 5 5 5 5 5 5 5 5 5 5 5 5 6 7 9 9 9 9 9 10 10 10 11 11 11 11 11 11
5 5 5 6 7 6 5 5 4 4 4 4 5 4 5 4 5 4 6 5 5 4 5 5 5 5 5 7 8 9 9 9 10 11 11 10 10 10
5 5 5 5 6 7 7 7 6 5 5 5 4 5 6 6 5 5 5 5 4 3 5 5 4 5 5 4 6 8 8 9 10 10 9 8 8 9
4 4 3 3 3 3 4 5 6 7 8 6 6 7 7 6 5 6 5 5 5 5 5 6 4 5 5 4 7 8 8 9 9 9 9 8 8 8
4 4 4 3 3 3 3 3 4 4 5 5 6 6 6 5 5 5 5 6 5 4 4 5 5 5 5 4 5 7 8 8 9 8 8 8 8 7
4 4 4 3 3 4 3 3 4 3 3 5 6 6 7 7 6 4 4 4 5 4 3 4 4 4 5 5 5 6 7 7 8 8 8 7 7 7
3 3 4 4 4 4 3 3 4 4 3 3 4 4 5 5 5 4 4 4 4 4 3 3 4 4 4 3 3 4 4 5 7 7 7 6 6 4
2 2 2 3 4 4 4 3 4 5 3 3 3 3 3 3 3 3 3 4 4 4 3 3 3 3 3 4 4 4 4 4 4 4 4 5 5 4
3 2 2 3 4 4 3 4 5 4 3 2 2 3 3 3 3 3 4 4 4 5 5 4 3 3 3 4 4 4 3 4 3 3 3 4 4 4
2 3 3 3 3 3 3 4 3 2 2 2 3 3 3 3 3 3 3 3 4 4 4 4 3 3 3 3 4 4 3 3 3 3 3 3 3 3
1 1 2 2 2 2 2 2 2 2 2 2 3 3 3 3 3 3 3 3 3 3 3 3 3 3 3 3 3 3 3 2 2 3 3 3 3 3
1 1 1 1 1 1 1 1 1 1 2 2 2 2 3 3 3 2 2 2 2 3 3 3 2 2 2 3 3 2 2 2 2 3 2 2 3 2
2 1 1 1 1 1 1 1 2 2 2 2 2 2 2 3 3 2 2 2 2 3 3 3 2 2 1 1 3 3 2 2 2 2 2 2 2 3
1 1 1 1 1 2 2 2 2 2 2 2 3 3 2 3 3 2 2 2 2 2 3 3 3 2 2 2 2 2 2 2 2 2 2 2 2 2
1 1 1 1 1 2 2 2 2 2 2 3 3 2 2 2 2 3 2 3 2 2 2 2 2 2 2 2 2 2 3 2 1 1 2 2 2 2
1 1 1 1 2 2 2 2 2 2 3 3 3 3 2 2 2 3 3 3 3 2 2 3 3 4 2 1 1 1 2 3 2 1 2 1 2 1
1 1 2 2 2 2 2 2 2 3 3 3 3 3 2 2 3 3 3 2 2 2 3 2 2 2 1 1 1 1 2 3 3 4 4 2 1 1
2 2 2 2 2 2 2 3 3 3 3 3 3 3 3 2 2 2 3 2 2 2 2 2 2 1 1 1 1 1 2 2 2 3 4 5 4 3
Wind_Direction
244 244 247 250 251 252 253 249 256 270 272 273 272 271 285 283 290 286 289 293 294 292 286 286 286 287 290 291 294 294 295 297 297 296 293 292 293 294
246 244 247 249 249 246 246 250 247 256 269 277 282 285 284 278 284 285 285 289 284 286 287 288 289 289 292 293 297 295 292 294 296 297 295 294 295 295
248 246 248 250 251 251 246 246 247 249 261 275 280 288 285 281 283 284 284 284 281 281 287 292 292 291 291 292 295 293 294 295 295 296 296 297 298 297
248 248 250 253 256 257 254 252 251 251 258 271 280 284 285 286 285 287 288 283 282 285 289 291 289 288 288 289 289 291 294 295 294 294 295 296 296 296
251 251 252 254 255 256 258 256 256 258 259 267 278 281 280 285 288 286 285 283 285 286 288 285 284 285 286 286 288 292 294 295 295 295 297 297 297 296
256 257 256 254 255 257 257 254 254 258 258 264 271 277 280 283 285 287 286 284 286 294 294 290 285 281 279 284 289 294 295 296 296 295 296 297 299 299
261 262 263 262 262 259 256 250 247 251 257 260 268 276 278 282 280 285 287 290 292 295 297 293 289 282 278 279 285 296 298 298 299 299 297 297 300 302
264 269 269 264 264 261 257 257 251 249 253 257 263 268 274 277 283 281 286 293 298 310 303 299 298 289 286 283 298 299 297 299 302 303 304 303 303 303
262 268 272 273 273 271 268 268 266 262 259 261 263 268 273 276 279 281 284 289 288 302 300 290 296 294 298 295 299 297 298 300 302 302 302 301 301 302
264 265 268 273 274 280 282 285 282 278 272 268 269 275 280 284 278 280 287 291 290 289 288 284 294 295 305 305 301 296 298 299 301 302 304 303 301 302
267 265 266 266 276 282 279 284 291 292 283 276 281 287 295 295 290 281 278 279 284 287 286 277 291 306 305 302 310 308 301 300 303 305 305 305 302 297
269 264 262 272 278 281 273 270 277 285 297 301 293 291 290 291 289 277 274 278 284 285 286 280 291 307 304 299 313 318 314 311 308 308 312 312 307 292
270 268 264 269 283 287 285 274 279 292 289 288 291 296 298 296 298 293 285 278 276 274 283 279 288 293 283 294 308 316 321 325 324 322 321 328 325 312
269 271 270 273 283 289 289 294 301 299 286 284 287 295 303 307 307 306 297 291 288 283 284 278 276 282 285 291 298 312 323 332 331 331 331 332 331 336
274 278 286 281 278 278 281 290 288 279 278 281 284 293 300 301 303 303 303 296 299 298 289 284 276 280 278 280 292 304 313 324 332 340 345 343 340 339
279 268 281 290 275 274 280 279 272 277 283 284 288 295 302 302 300 300 301 308 314 322 323 313 299 287 285 290 289 298 308 313 327 336 340 343 345 346
292 272 267 268 277 287 294 294 289 284 283 286 289 293 298 297 297 300 303 307 303 307 318 324 322 321 318 311 293 296 305 315 321 325 331 338 344 344
280 254 251 264 276 282 284 290 291 292 293 286 281 282 288 292 297 302 305 302 302 303 303 309 309 308 306 333 324 297 307 316 322 331 328 328 335 343
258 248 252 258 271 277 282 288 291 291 286 279 278 281 284 286 292 299 301 299 300 305 309 310 308 306 313 319 329 329 305 314 317 327 332 329 326 336
280 269 271 273 272 277 283 287 289 287 282 279 279 280 280 283 287 291 290 292 293 297 301 306 310 312 304 296 302 328 337 309 308 314 331 336 335 328
288 286 284 281 277 279 282 285 284 282 283 284 282 283 280 278 283 288 288 291 288 287 291 297 301 308 305 305 320 344 2 3 345 320 320 330 337 347
287 292 291 288 285 282 282 281 278 276 279 282 285 285 281 277 279 283 283 280 282 290 294 305 319 319 322 321 335 358 5 10 27 34 28 10 324 323
291 293 291 286 279 276 275 274 275 277 279 283 283 282 282 279 276 274 276 275 279 293 303 316 333 348 359 355 2 15 22 14 22 34 37 35 43 42